Location: Newark
(43.6486°N, 79.3853°W)
Time: 08:03:06
(UTC+00:00)

STARLINK-1302 - Visible Passes

Search period start: 11 August 2020 00:00
Search period end: 21 August 2020 00:00
Orbit: 549 x 550 km, 53.0° (Epoch: 11 August)

Date Brightness Start Highest point End Pass type
(mag) Time Alt. Az. Time Alt. Az. Time Alt. Az.
11 Aug 3.7 07:33:30 73° NE 07:33:30 73° NE 07:37:17 10° NE visible
11 Aug 5.2 09:09:30 10° WNW 09:13:07 28° NNW 09:16:44 10° NE visible
12 Aug 4.0 07:28:05 63° NNE 07:28:05 63° NNE 07:31:46 10° NE visible
12 Aug 5.4 09:04:15 10° WNW 09:07:45 25° NNW 09:11:15 10° NE visible
13 Aug 4.3 07:22:37 51° N 07:22:37 51° N 07:26:14 10° NE visible
13 Aug 5.6 08:58:59 10° WNW 09:02:23 24° N 09:05:47 10° NE visible
14 Aug 4.6 07:17:08 43° N 07:17:08 43° N 07:20:42 10° NE visible
14 Aug 5.7 08:53:43 10° WNW 08:57:02 23° N 09:00:22 10° NE visible
15 Aug 4.9 07:11:39 36° N 07:11:39 36° N 07:15:09 10° NE visible
15 Aug 5.8 08:48:24 10° NW 08:51:41 22° N 08:54:58 10° NE visible
16 Aug 5.2 07:06:08 32° N 07:06:08 32° N 07:09:36 10° NE visible
16 Aug 5.8 08:43:02 10° NW 08:46:19 22° N 08:49:37 10° NE visible
17 Aug 5.4 07:00:38 28° N 07:00:38 28° N 07:04:03 10° NE visible
17 Aug 5.9 08:37:38 10° NW 08:40:57 22° N 08:44:17 10° ENE visible
18 Aug 5.6 06:55:09 26° N 06:55:09 26° N 06:58:32 10° NE visible
18 Aug 5.8 08:32:11 10° NW 08:35:34 24° N 08:38:58 10° ENE visible
19 Aug 5.7 06:49:42 24° N 06:49:42 24° N 06:53:01 10° NE visible
19 Aug 5.8 08:26:42 10° NW 08:30:10 25° NNE 08:33:39 10° ENE visible
20 Aug 5.8 06:44:19 23° N 06:44:19 23° N 06:47:33 10° NE visible
20 Aug 5.6 08:21:10 10° NW 08:24:46 28° NNE 08:28:21 10° ENE visible
